• In Latvia
  • List of Countries
  • For 7 days
  • Water Temperature
  • Satellite Maps
  • Weather Map
  • Weather Widgets
  • user-avatar
    Login

    Hourly Weather Kalgoorlie

    Today, 24 February, Friday

    Time Temperature Precipitation Wind Pressure Humidity
    00:00 +22°C° 0 mm 5 mps 735 mmHg 40%
    01:00 +21°C° 0 mm 6 mps 735 mmHg 44%
    02:00 +20°C° 0 mm 6 mps 735 mmHg 49%
    03:00 +19°C° 0 mm 6 mps 735 mmHg 54%
    04:00 +19°C° 0 mm 6 mps 736 mmHg 59%
    05:00 +17°C° 0 mm 6 mps 736 mmHg 64%
    06:00 +19°C° 0 mm 6 mps 736 mmHg 61%
    07:00 +20°C° 0 mm 6 mps 736 mmHg 59%
    08:00 +20°C° 0 mm 7 mps 737 mmHg 56%
    09:00 +23°C° 0 mm 6 mps 737 mmHg 47%
    10:00 +26°C° 0 mm 6 mps 737 mmHg 38%
    11:00 +29°C° 0 mm 6 mps 737 mmHg 29%
    12:00 +30°C° 0 mm 6 mps 736 mmHg 26%
    13:00 +32°C° 0 mm 6 mps 735 mmHg 23%
    14:00 +33°C° 0 mm 6 mps 735 mmHg 19%
    15:00 +33°C° 0 mm 6 mps 734 mmHg 19%
    16:00 +33°C° 0 mm 6 mps 734 mmHg 19%
    17:00 +33°C° 0 mm 6 mps 734 mmHg 19%
    18:00 +30°C° 0 mm 5 mps 734 mmHg 22%
    19:00 +28°C° 0 mm 5 mps 734 mmHg 25%
    20:00 +26°C° 0 mm 5 mps 734 mmHg 28%
    21:00 +25°C° 0 mm 5 mps 734 mmHg 29%
    22:00 +25°C° 0 mm 5 mps 734 mmHg 29%
    23:00 +23°C° 0 mm 5 mps 734 mmHg 30%

    Tomorrow, 25 February, Saturday

    Time Temperature Precipitation Wind Pressure Humidity
    00:00 +22°C° 0 mm 5 mps 734 mmHg 35%
    01:00 +21°C° 0 mm 6 mps 734 mmHg 41%
    02:00 +20°C° 0 mm 6 mps 734 mmHg 46%
    03:00 +20°C° 0 mm 6 mps 734 mmHg 52%
    04:00 +19°C° 0 mm 6 mps 734 mmHg 59%
    05:00 +17°C° 0 mm 6 mps 734 mmHg 65%
    06:00 +19°C° 0 mm 6 mps 734 mmHg 61%
    07:00 +21°C° 0 mm 6 mps 734 mmHg 56%
    08:00 +22°C° 0 mm 6 mps 734 mmHg 51%
    09:00 +24°C° 0 mm 6 mps 734 mmHg 42%
    10:00 +28°C° 0 mm 6 mps 733 mmHg 33%
    11:00 +32°C° 0 mm 6 mps 733 mmHg 24%
    12:00 +33°C° 0 mm 5 mps 733 mmHg 21%
    13:00 +34°C° 0 mm 4 mps 732 mmHg 18%
    14:00 +35°C° 0 mm 3 mps 731 mmHg 16%
    15:00 +35°C° 0 mm 3 mps 731 mmHg 15%
    16:00 +35°C° 0 mm 2 mps 731 mmHg 15%
    17:00 +34°C° 0 mm 1 mps 730 mmHg 14%
    18:00 +32°C° 0 mm 2 mps 730 mmHg 16%
    19:00 +30°C° 0 mm 3 mps 730 mmHg 18%
    20:00 +29°C° 0 mm 4 mps 730 mmHg 20%
    21:00 +28°C° 0 mm 4 mps 730 mmHg 22%
    22:00 +27°C° 0 mm 5 mps 730 mmHg 23%
    23:00 +26°C° 0 mm 5 mps 730 mmHg 24%

    Day after tomorrow, 26 February, Sunday

    Time Temperature Precipitation Wind Pressure Humidity
    00:00 +26°C° 0 mm 5 mps 729 mmHg 25%
    01:00 +25°C° 0 mm 5 mps 729 mmHg 26%
    02:00 +25°C° 0 mm 5 mps 728 mmHg 27%
    03:00 +23°C° 0 mm 4 mps 729 mmHg 28%
    04:00 +23°C° 0 mm 4 mps 729 mmHg 30%
    05:00 +22°C° 0 mm 4 mps 729 mmHg 31%
    06:00 +25°C° 0 mm 5 mps 729 mmHg 28%
    07:00 +27°C° 0 mm 6 mps 729 mmHg 26%
    08:00 +28°C° 0 mm 6 mps 729 mmHg 23%
    09:00 +32°C° 0 mm 6 mps 729 mmHg 20%
    10:00 +35°C° 0 mm 6 mps 729 mmHg 17%
    11:00 +39°C° 0 mm 6 mps 729 mmHg 14%
    12:00 +40°C° 0 mm 6 mps 729 mmHg 13%
    13:00 +41°C° 0 mm 5 mps 728 mmHg 13%
    14:00 +42°C° 0 mm 5 mps 727 mmHg 12%
    15:00 +41°C° 0 mm 4 mps 727 mmHg 12%
    16:00 +40°C° 0 mm 3 mps 727 mmHg 12%
    17:00 +40°C° 0 mm 2 mps 727 mmHg 12%
    18:00 +38°C° 0.1 mm 2 mps 727 mmHg 15%
    19:00 +36°C° 0.1 mm 3 mps 727 mmHg 18%
    20:00 +34°C° 0.1 mm 3 mps 727 mmHg 21%
    21:00 +33°C° 0.2 mm 3 mps 727 mmHg 24%
    22:00 +33°C° 0.2 mm 3 mps 727 mmHg 27%
    23:00 +31°C° 0.2 mm 2 mps 728 mmHg 30%

    27 February, Monday

    Time Temperature Precipitation Wind Pressure Humidity
    00:00 +30°C° 0.4 mm 3 mps 727 mmHg 31%
    01:00 +29°C° 0.4 mm 3 mps 727 mmHg 32%
    02:00 +28°C° 0.4 mm 3 mps 727 mmHg 34%
    03:00 +28°C° 0 mm 3 mps 728 mmHg 33%
    04:00 +28°C° 0 mm 3 mps 728 mmHg 32%
    05:00 +27°C° 0 mm 3 mps 728 mmHg 31%
    06:00 +28°C° 0 mm 4 mps 728 mmHg 28%
    07:00 +30°C° 0 mm 4 mps 729 mmHg 26%
    08:00 +32°C° 0 mm 4 mps 729 mmHg 24%
    09:00 +34°C° 0 mm 4 mps 729 mmHg 21%
    10:00 +37°C° 0 mm 4 mps 729 mmHg 18%
    11:00 +40°C° 0 mm 4 mps 729 mmHg 15%
    12:00 +41°C° 0 mm 4 mps 728 mmHg 14%
    13:00 +42°C° 0 mm 4 mps 728 mmHg 14%
    14:00 +42°C° 0 mm 4 mps 727 mmHg 13%
    15:00 +42°C° 0 mm 4 mps 727 mmHg 14%
    16:00 +41°C° 0 mm 4 mps 727 mmHg 15%
    17:00 +41°C° 0 mm 4 mps 727 mmHg 16%
    18:00 +39°C° 0 mm 5 mps 728 mmHg 20%
    19:00 +36°C° 0 mm 6 mps 728 mmHg 25%
    20:00 +34°C° 0 mm 7 mps 729 mmHg 30%
    21:00 +32°C° 0 mm 7 mps 729 mmHg 37%
    22:00 +29°C° 0 mm 7 mps 729 mmHg 45%
    23:00 +27°C° 0 mm 8 mps 729 mmHg 52%

    28 February, Tuesday

    Time Temperature Precipitation Wind Pressure Humidity
    00:00 +26°C° 0 mm 7 mps 729 mmHg 55%
    01:00 +24°C° 0 mm 7 mps 729 mmHg 58%
    02:00 +23°C° 0 mm 7 mps 729 mmHg 61%
    03:00 +23°C° 0 mm 6 mps 729 mmHg 62%
    04:00 +22°C° 0 mm 6 mps 729 mmHg 63%
    05:00 +22°C° 0 mm 5 mps 729 mmHg 63%
    06:00 +23°C° 0 mm 5 mps 730 mmHg 60%
    07:00 +23°C° 0 mm 5 mps 730 mmHg 57%
    08:00 +25°C° 0 mm 5 mps 730 mmHg 54%
    09:00 +28°C° 0 mm 5 mps 730 mmHg 45%
    10:00 +30°C° 0 mm 5 mps 730 mmHg 36%
    11:00 +34°C° 0 mm 5 mps 730 mmHg 28%
    12:00 +35°C° 0 mm 4 mps 730 mmHg 25%
    13:00 +36°C° 0 mm 3 mps 729 mmHg 22%
    14:00 +38°C° 0 mm 2 mps 729 mmHg 20%
    15:00 +38°C° 0 mm 3 mps 729 mmHg 20%
    16:00 +38°C° 0 mm 3 mps 728 mmHg 20%
    17:00 +38°C° 0 mm 4 mps 728 mmHg 20%
    18:00 +36°C° 0 mm 5 mps 729 mmHg 24%
    19:00 +34°C° 0 mm 6 mps 729 mmHg 29%
    20:00 +32°C° 0 mm 7 mps 730 mmHg 34%
    21:00 +29°C° 0.1 mm 7 mps 730 mmHg 42%
    22:00 +27°C° 0.1 mm 7 mps 730 mmHg 50%
    23:00 +24°C° 0.1 mm 8 mps 730 mmHg 58%

    1 March, Wednesday

    Time Temperature Precipitation Wind Pressure Humidity
    00:00 +23°C° 0.2 mm 8 mps 730 mmHg 62%
    01:00 +22°C° 0.2 mm 7 mps 730 mmHg 66%
    02:00 +21°C° 0.2 mm 7 mps 730 mmHg 70%
    03:00 +20°C° 0.1 mm 7 mps 730 mmHg 72%
    04:00 +20°C° 0.1 mm 6 mps 730 mmHg 74%
    05:00 +20°C° 0.1 mm 5 mps 730 mmHg 76%
    06:00 +20°C° 0.1 mm 6 mps 730 mmHg 71%
    07:00 +21°C° 0.1 mm 6 mps 730 mmHg 66%
    08:00 +22°C° 0.1 mm 6 mps 731 mmHg 62%
    09:00 +26°C° 0 mm 6 mps 731 mmHg 52%
    10:00 +28°C° 0 mm 6 mps 730 mmHg 42%
    11:00 +32°C° 0 mm 6 mps 730 mmHg 32%
    12:00 +34°C° 0 mm 5 mps 730 mmHg 27%
    13:00 +36°C° 0 mm 5 mps 729 mmHg 22%
    14:00 +38°C° 0 mm 4 mps 728 mmHg 18%
    15:00 +38°C° 0 mm 3 mps 728 mmHg 17%
    16:00 +39°C° 0 mm 2 mps 728 mmHg 16%
    17:00 +39°C° 0 mm 1 mps 728 mmHg 15%
    18:00 +37°C° 0 mm 2 mps 728 mmHg 17%
    19:00 +35°C° 0 mm 2 mps 728 mmHg 19%
    20:00 +33°C° 0 mm 3 mps 728 mmHg 21%
    21:00 +31°C° 0 mm 3 mps 728 mmHg 23%
    22:00 +30°C° 0 mm 4 mps 729 mmHg 24%
    23:00 +29°C° 0 mm 5 mps 729 mmHg 26%
    Show more